CAPE
0 0 0 0 0 0 0 0 0 0 0 0 0 0 0 0 0 0 0 0 62 88 184 106 140 19 22 0 0 0 0 0 0 0 0 0 0 0 0 0 0 0 0 0
0 0 0 0 0 0 0 0 0 0 0 0 0 0 0 0 0 0 0 0 13 83 110 57 79 0 0 0 0 0 0 0 0 0 0 0 0 0 0 0 0 0 0 0
0 0 0 0 0 0 0 0 0 0 0 0 0 0 0 0 0 0 0 0 0 22 0 1 0 0 0 1 0 0 0 0 0 0 0 0 0 0 0 0 0 0 0 0
0 0 0 0 0 0 0 0 0 0 0 0 0 0 0 0 0 0 0 0 0 0 81 6 0 1 30 13 0 0 0 0 0 0 0 0 0 0 0 0 0 0 0 0
0 0 0 0 0 0 0 0 0 0 0 0 0 0 0 0 0 0 0 0 0 0 0 101 48 78 72 43 10 0 0 0 0 0 0 0 0 0 0 0 0 0 0 0
0 0 0 0 0 0 0 0 0 0 0 0 0 0 0 0 0 0 0 0 0 0 0 7 90 61 10 7 3 0 0 0 0 0 0 0 0 0 0 0 0 0 0 0
0 0 0 0 0 0 0 0 0 0 0 0 0 0 0 0 0 0 0 0 0 0 0 0 33 25 2 1 0 0 0 0 0 0 0 0 0 0 0 0 0 0 0 0
0 0 0 0 0 0 0 0 0 0 0 0 0 0 0 0 0 0 0 0 0 0 0 0 0 60 38 19 0 0 0 0 0 0 0 0 0 0 0 0 0 0 0 0
0 0 0 0 0 0 0 0 0 0 0 0 0 0 0 0 0 0 0 0 0 0 0 0 61 99 103 48 1 0 0 0 0 1 0 0 0 0 0 0 0 0 0 0
0 0 0 0 0 0 0 0 0 0 0 0 0 0 0 0 0 0 0 0 0 0 0 0 0 74 152 85 44 2 1 0 0 0 0 0 0 0 0 0 0 0 0 0
0 0 0 0 0 0 0 0 0 0 0 0 0 0 0 0 0 0 0 0 0 0 0 0 0 5 100 142 112 1 1 2 1 0 0 0 0 0 0 0 0 0 0 0
0 0 0 0 0 0 0 0 0 0 0 0 0 0 0 0 0 0 0 0 0 0 0 0 0 0 95 185 144 76 0 1 0 0 0 0 0 0 0 0 0 0 0 0
0 0 0 0 0 0 0 0 0 0 0 0 0 0 0 0 0 0 0 0 0 0 0 0 0 0 129 221 169 124 65 0 0 0 0 0 0 0 0 0 0 0 0 0
0 0 0 0 0 0 0 0 0 0 0 0 0 0 0 0 0 0 0 0 0 0 0 0 0 0 7 207 206 132 41 2 1 1 1 1 0 0 0 0 0 0 0 0
0 0 0 0 0 0 0 0 0 0 0 0 0 0 0 0 0 0 0 0 0 0 0 0 0 0 0 0 98 96 26 0 1 1 1 2 1 0 0 0 0 0 0 0
0 0 0 0 0 0 0 0 0 0 0 0 0 0 0 0 0 0 0 0 0 0 0 0 0 0 0 0 0 5 27 0 1 1 2 2 2 1 0 0 0 0 0 0
0 0 0 0 0 0 0 0 0 0 0 0 0 0 0 0 0 0 0 0 0 0 0 0 0 0 0 0 0 0 0 0 0 0 0 1 1 0 0 0 0 0 0 0
2 0 0 0 0 0 0 0 0 0 0 0 0 0 0 0 0 0 0 0 0 0 0 0 0 0 0 0 0 0 0 0 0 1 1 1 1 0 0 0 0 0 0 0
0 0 0 1 0 0 0 0 0 0 0 0 0 0 0 0 0 0 0 0 0 0 0 0 0 0 0 0 0 0 0 0 0 0 0 0 0 0 0 0 0 0 0 0
0 0 0 0 0 0 0 0 0 0 0 0 0 0 0 0 0 0 0 0 0 0 0 0 0 0 0 0 0 0 0 0 0 0 0 0 0 0 0 0 0 0 0 0
0 4 3 2 7 0 0 0 0 0 0 0 0 0 0 0 0 0 0 0 0 0 0 0 0 0 0 0 0 0 0 0 0 0 0 0 0 0 0 0 0 0 0 0
0 0 1 0 3 0 0 0 0 0 0 0 0 0 0 0 0 0 0 0 0 0 0 0 0 0 0 0 0 0 0 0 0 0 0 0 0 0 0 0 0 0 0 0
0 0 0 0 0 0 0 0 0 0 0 0 0 0 0 0 0 0 0 0 0 0 0 0 0 0 0 0 0 0 0 0 0 0 0 0 0 0 0 0 0 0 0 0
0 0 0 0 0 0 0 0 0 0 0 0 0 0 0 0 0 0 0 0 0 0 0 0 0 0 0 0 0 0 0 0 0 0 0 0 0 0 0 0 0 0 0 0
0 0 0 0 0 0 0 0 0 0 0 0 0 0 0 0 0 0 0 0 0 0 0 0 0 0 0 0 0 0 0 0 0 0 0 0 0 0 0 0 0 0 0 0
0 0 0 0 0 0 0 0 0 0 0 0 0 0 0 0 0 0 0 0 0 0 0 0 0 0 0 0 0 0 0 0 0 0 0 0 0 0 0 0 0 0 0 0
CIN
-0 -0 -0 -0 -0 -0 -0 -0 -0 -0 -0 -0 -0 -0 -0 -0 -0 -0 -0 -0 -50 -44 -33 -15 -13 -7 -65 -0 -0 -0 -0 -0 -0 -0 -0 -0 -0 -0 -0 -0 -0 -0 -0 -0
-0 -0 -0 -0 -0 -0 -0 -0 -0 -0 -0 -0 -0 -0 -0 -0 -0 -0 -0 -0 -26 -39 -28 -33 -48 -0 -0 -0 -0 -0 -0 -0 -0 -0 -0 -0 -0 -0 -0 -0 -0 -0 -0 -0
-0 -0 -0 -0 -0 -0 -0 -0 -0 -0 -0 -0 -0 -0 -0 -0 -0 -0 -0 -0 -0 -44 -0 -26 -0 -0 -0 -23 -0 -0 -0 -0 -0 -0 -0 -0 -0 -0 -0 -0 -0 -0 -0 -0
-0 -0 -0 -0 -0 -0 -0 -0 -0 -0 -0 -0 -0 -0 -0 -0 -0 -0 -0 -0 -0 -0 -48 -46 -0 -214 -101 -109 -0 -0 -0 -0 -0 -0 -0 -0 -0 -0 -0 -0 -0 -0 -0 -0
-0 -0 -0 -0 -0 -0 -0 -0 -0 -0 -0 -0 -0 -0 -0 -0 -0 -0 -0 -0 -0 -0 -0 -51 -36 -41 -77 -114 -293 -0 -0 -0 -0 -0 -0 -0 -0 -0 -0 -0 -0 -0 -0 -0
-0 -0 -0 -0 -0 -0 -0 -0 -0 -0 -0 -0 -0 -0 -0 -0 -0 -0 -0 -0 -0 -0 -0 -38 -75 -81 -76 -95 -156 -0 -0 -0 -0 -0 -0 -0 -0 -0 -0 -0 -0 -0 -0 -0
-0 -0 -0 -0 -0 -0 -0 -0 -0 -0 -0 -0 -0 -0 -0 -0 -0 -0 -0 -0 -0 -0 -0 -0 -73 -71 -75 -0 -0 -0 -0 -0 -0 -0 -0 -0 -0 -0 -0 -0 -0 -0 -0 -0
-0 -0 -0 -0 -0 -0 -0 -0 -0 -0 -0 -0 -0 -0 -0 -0 -0 -0 -0 -0 -0 -0 -0 -0 -0 -101 -122 -120 -0 -0 -0 -0 -0 -0 -0 -0 -0 -0 -0 -0 -0 -0 -0 -0
-0 -0 -0 -0 -0 -0 -0 -0 -0 -0 -0 -0 -0 -0 -0 -0 -0 -0 -0 -0 -0 -0 -0 -0 -92 -99 -84 -116 -7 -0 -0 -0 -0 -0 -0 -0 -0 -0 -0 -0 -0 -0 -0 -0
-0 -0 -0 -0 -0 -0 -0 -0 -0 -1 -0 -0 -0 -0 -0 -0 -0 -0 -0 -0 -0 -0 -0 -0 -0 -119 -78 -103 -169 -0 -0 -0 -0 -0 -0 -0 -0 -0 -0 -0 -0 -0 -0 -0
-0 -0 -0 -0 -0 -0 -0 -0 -0 -0 -0 -0 -0 -0 -0 -0 -0 -0 -0 -0 -0 -0 -0 -0 -0 -57 -135 -71 -84 -0 -0 -0 -0 -0 -0 -0 -0 -0 -0 -0 -0 -0 -0 -0
-0 -0 -0 -0 -0 -0 -0 -0 -0 -0 -0 -0 -0 -0 -0 -0 -0 -0 -0 -0 -0 -0 -0 -0 -0 -0 -162 -70 -84 -125 -0 -0 -0 -0 -0 -0 -0 -0 -0 -0 -0 -0 -0 -0
-0 -0 -0 -0 -0 -0 -0 -0 -0 -0 -0 -0 -0 -0 -0 -0 -0 -0 -0 -0 -0 -0 -0 -0 -0 -0 -173 -105 -107 -150 -191 -0 -0 -0 -0 -0 -0 -0 -0 -0 -0 -0 -0 -0
-0 -0 -0 -0 -0 -0 -0 -0 -0 -0 -0 -0 -0 -0 -0 -0 -0 -0 -0 -0 -0 -0 -0 -0 -0 -0 -23 -137 -112 -145 -201 -72 -0 -0 -0 -0 -0 -0 -0 -0 -0 -0 -0 -0
-0 -0 -0 -0 -0 -0 -0 -0 -0 -0 -0 -0 -0 -0 -0 -0 -0 -0 -0 -0 -0 -0 -0 -0 -0 -0 -0 -0 -224 -174 -214 -0 -0 -0 -0 -0 -0 -0 -0 -0 -0 -0 -0 -0
-0 -0 -0 -0 -0 -0 -0 -0 -0 -0 -0 -0 -0 -0 -0 -0 -0 -0 -0 -0 -0 -0 -0 -0 -0 -0 -0 -0 -0 -291 -238 -0 -0 -0 -0 -0 -0 -0 -0 -0 -0 -0 -0 -0
-0 -0 -0 -0 -0 -0 -0 -0 -0 -0 -0 -0 -0 -0 -0 -0 -0 -0 -0 -0 -0 -0 -0 -0 -0 -0 -0 -0 -0 -0 -0 -0 -0 -0 -0 -0 -0 -0 -0 -0 -0 -0 -0 -0
-0 -0 -0 -0 -0 -0 -0 -0 -0 -0 -0 -0 -0 -0 -0 -0 -0 -0 -0 -0 -0 -0 -0 -0 -0 -0 -0 -0 -0 -0 -0 -0 -0 -0 -0 -0 -0 -0 -0 -0 -0 -0 -0 -0
-0 -0 -24 -4 -1 -0 -0 -0 -0 -0 -0 -0 -0 -0 -0 -0 -0 -0 -0 -0 -0 -0 -0 -0 -0 -0 -0 -0 -0 -0 -0 -0 -0 -0 -0 -0 -0 -0 -0 -0 -0 -0 -0 -0
-0 -2 -0 -0 -10 -1 -0 -0 -0 -0 -0 -0 -0 -0 -0 -0 -0 -0 -0 -0 -0 -0 -0 -0 -0 -0 -0 -0 -0 -0 -0 -0 -0 -0 -0 -0 -0 -0 -0 -0 -0 -0 -0 -0
-0 -33 -36 -9 -21 -0 -0 -0 -0 -0 -0 -0 -0 -0 -0 -0 -0 -0 -0 -0 -0 -0 -0 -0 -0 -0 -0 -0 -0 -0 -0 -0 -0 -0 -0 -0 -0 -0 -0 -0 -0 -0 -0 -0
-0 -0 -1 -0 -25 -0 -0 -0 -0 -0 -0 -0 -0 -0 -0 -0 -0 -0 -0 -0 -0 -0 -0 -0 -0 -0 -0 -0 -0 -0 -0 -0 -0 -0 -0 -0 -0 -0 -0 -0 -0 -0 -0 -0
-0 -0 -0 -0 -0 -0 -0 -0 -0 -0 -0 -0 -0 -0 -0 -0 -0 -0 -0 -0 -0 -0 -0 -0 -0 -0 -0 -0 -0 -0 -0 -0 -0 -0 -0 -0 -0 -0 -0 -0 -0 -0 -0 -0
-0 -0 -0 -0 -0 -0 -0 -0 -0 -0 -0 -0 -0 -0 -0 -0 -0 -0 -0 -0 -0 -0 -0 -0 -0 -0 -0 -0 -0 -0 -0 -0 -0 -0 -0 -0 -0 -0 -0 -0 -0 -0 -0 -0
-0 -0 -0 -0 -0 -0 -0 -0 -0 -0 -0 -0 -0 -0 -0 -0 -0 -0 -0 -0 -0 -0 -0 -0 -0 -0 -0 -0 -0 -0 -0 -0 -0 -0 -0 -0 -0 -0 -0 -0 -0 -0 -0 -0
-0 -0 -0 -0 -0 -0 -0 -0 -0 -0 -0 -0 -0 -0 -0 -0 -0 -0 -0 -0 -0 -0 -0 -0 -0 -0 -0 -0 -0 -0 -0 -0 -0 -0 -0 -0 -0 -0 -0 -0 -0 -0 -0 -0
Wind_Speed
18 18 15 14 12 13 13 11 9 7 3 4 19 37 36 35 38 42 40 38 38 38 31 30 30 28 33 33 33 33 31 29 27 26 24 22 21 18 17 16 13 8 7 5
21 17 12 13 12 13 13 12 9 9 9 6 10 35 38 37 40 43 41 40 39 35 30 31 25 28 35 33 34 34 31 29 29 28 27 25 23 23 19 17 16 11 8 6
16 19 18 16 15 14 11 10 11 8 12 7 10 9 23 26 34 38 41 41 41 39 37 32 28 38 41 39 37 37 33 30 30 30 27 24 21 22 22 22 19 14 9 7
19 17 13 13 12 12 14 13 11 11 14 12 15 4 7 27 32 36 37 40 45 39 35 36 33 37 26 36 38 36 33 33 32 31 30 28 27 26 26 23 20 15 13 10
23 21 18 17 15 13 15 17 15 14 13 13 11 5 3 13 28 31 31 35 40 42 39 35 36 30 27 33 28 32 33 32 32 34 35 34 32 31 27 23 19 17 16 14
21 21 20 16 16 13 18 18 18 18 16 12 12 6 6 9 16 18 21 24 32 38 42 37 35 32 30 28 26 32 27 38 33 36 38 41 37 31 28 23 21 19 18 16
27 23 21 17 19 16 15 19 24 21 18 12 17 11 4 4 6 26 30 29 27 31 38 38 34 35 31 29 29 26 23 31 29 40 42 44 42 34 29 24 22 20 19 18
34 36 17 13 14 17 13 14 19 25 19 21 21 10 9 8 5 7 28 27 25 26 32 37 34 32 31 30 30 29 28 28 24 38 29 40 41 35 32 28 23 22 21 18
28 30 19 17 16 13 18 18 17 21 23 23 19 21 5 6 4 11 21 24 26 24 25 33 33 34 31 31 30 31 33 31 28 27 25 37 30 34 34 31 26 24 23 21
24 32 23 19 17 17 18 14 21 19 24 24 22 25 9 19 9 10 24 22 23 25 27 28 29 32 31 29 29 28 29 31 30 29 28 26 32 30 33 30 27 26 24 23
22 26 27 20 21 20 20 22 21 21 21 25 27 23 17 18 15 14 19 14 22 25 28 28 28 30 31 31 30 30 31 33 32 32 31 29 29 25 29 27 26 24 24 21
22 26 33 30 25 20 21 22 20 27 26 23 25 30 21 18 18 17 12 8 15 25 27 27 27 26 26 27 30 32 31 34 36 34 34 34 32 31 29 31 28 23 23 22
22 30 37 35 30 26 28 26 24 26 27 28 26 27 17 14 20 21 18 15 14 28 32 29 26 23 21 23 27 31 32 33 38 40 38 37 34 35 32 29 26 26 25 25
23 30 36 43 34 25 27 27 23 26 33 36 28 35 30 31 37 40 39 38 29 25 28 28 30 25 21 21 25 30 31 33 34 34 36 36 34 33 30 31 29 28 27 25
31 42 38 39 36 32 34 31 26 29 31 38 41 33 45 36 38 42 39 38 37 22 16 26 29 30 27 24 24 26 31 33 34 37 37 37 34 33 31 29 32 31 27 25
34 46 41 45 38 36 40 38 34 31 33 42 48 52 49 48 45 41 38 38 38 24 8 16 24 29 32 30 25 25 26 28 29 33 37 36 35 36 36 31 35 30 29 26
37 39 39 48 36 37 48 41 38 39 37 38 48 51 48 44 43 39 42 39 35 31 24 18 16 24 28 29 28 25 22 22 21 28 32 32 32 31 31 29 27 27 28 26
43 43 42 45 37 50 40 34 32 34 39 37 42 43 46 45 44 38 37 37 33 28 23 19 18 22 26 27 25 25 21 20 21 21 23 27 30 30 29 27 28 25 27 27
42 43 43 44 45 43 36 31 28 29 37 30 36 38 41 42 40 42 30 27 26 24 22 22 21 21 22 24 22 20 21 20 21 20 20 21 24 25 26 28 27 29 29 30
40 39 40 31 44 49 42 38 32 32 51 36 34 37 40 38 45 40 24 21 20 20 20 20 18 17 17 18 17 17 17 18 21 22 22 20 20 21 22 24 25 26 28 25
36 41 47 45 44 38 27 18 18 37 39 28 33 34 31 30 29 23 18 16 16 15 14 13 12 12 13 13 13 13 15 17 20 19 19 20 20 21 21 21 21 22 24 24
29 33 38 36 42 46 25 28 38 37 30 27 28 26 23 19 16 15 16 14 13 12 12 13 11 12 13 14 13 14 16 17 17 17 18 19 20 20 20 20 21 21 22 23
31 24 29 30 33 28 24 30 27 24 25 24 22 20 18 16 15 13 13 12 12 12 12 14 13 13 15 16 16 16 17 18 18 18 19 19 20 20 20 20 20 21 22 23
27 24 22 21 24 22 20 17 17 16 17 15 13 12 13 13 12 12 11 12 11 13 14 15 16 17 18 19 18 19 20 21 20 21 20 19 20 20 20 20 19 20 21 23
27 28 21 23 20 18 17 14 11 9 8 7 8 10 13 11 10 11 12 14 14 16 17 18 20 20 20 21 22 24 25 25 25 25 25 24 23 22 22 21 20 21 22 22
23 25 21 21 6 16 10 9 8 6 9 11 11 10 9 10 12 14 16 17 19 20 20 20 20 21 22 23 24 27 28 27 26 26 26 25 24 22 22 22 23 22 22 22
Wind_Direction
8 5 4 10 17 13 9 8 359 358 321 338 253 274 277 272 261 255 255 251 246 245 251 246 239 239 233 225 223 223 225 228 228 232 234 240 245 249 255 261 270 285 305 331
354 351 3 10 10 6 9 4 357 354 30 350 249 259 275 272 260 254 254 250 247 245 245 244 245 247 241 233 227 227 228 229 230 233 238 244 245 249 254 260 266 277 290 309
343 353 2 4 4 0 358 358 357 342 357 354 356 260 311 286 263 259 255 251 248 245 243 243 247 248 246 245 232 231 231 233 233 235 240 245 245 251 253 257 263 270 280 293
337 346 347 346 350 2 353 5 7 7 14 15 24 330 352 291 268 261 258 253 248 246 247 247 248 243 238 242 235 234 236 234 235 238 240 242 243 248 253 257 262 265 272 280
329 335 339 340 345 358 357 4 6 11 9 8 22 33 141 334 273 267 264 259 253 248 248 248 244 244 240 240 242 242 234 237 236 242 241 242 245 249 255 257 258 262 269 273
312 323 326 328 338 345 350 355 359 359 7 21 27 62 96 103 301 281 281 278 261 251 247 251 249 248 246 240 242 242 244 239 243 241 242 241 244 249 252 255 254 258 266 269
322 318 316 322 323 332 340 346 345 353 3 18 25 36 200 154 181 287 281 282 278 260 249 249 249 248 249 244 243 243 239 240 242 240 243 239 243 248 250 250 252 253 261 267
311 310 320 321 312 326 327 334 338 335 346 346 352 29 64 54 111 11 290 286 288 275 259 250 250 249 249 246 242 238 237 241 231 234 225 241 243 246 249 250 251 255 259 263
308 308 321 323 321 315 321 315 331 327 331 331 343 343 345 11 129 58 325 291 286 285 271 256 253 252 250 250 248 241 241 237 233 229 222 242 239 243 247 250 252 254 259 263
306 302 310 310 313 308 307 322 316 321 321 323 327 328 9 352 14 11 327 315 299 290 280 270 260 257 255 250 251 247 240 228 232 235 235 237 245 240 246 249 252 256 258 259
298 296 301 303 294 292 294 295 302 309 311 313 315 321 340 353 2 355 347 6 315 303 292 276 271 265 262 255 250 249 246 239 241 240 237 238 241 236 245 246 250 255 257 255
286 295 289 286 297 292 287 289 285 290 298 301 307 305 319 331 347 352 349 7 347 317 303 291 282 276 267 257 249 249 248 244 244 244 242 244 246 245 243 248 254 247 249 255
284 284 286 289 290 288 284 279 276 283 289 286 293 301 316 331 334 341 342 343 340 313 298 292 292 284 276 263 256 253 252 251 248 247 246 247 247 246 245 245 250 247 249 254
273 275 275 276 284 294 285 278 270 270 276 280 276 288 292 297 294 287 277 273 309 316 306 291 283 287 283 273 266 259 256 254 251 248 246 245 244 242 245 251 252 248 249 251
276 275 275 274 277 277 280 279 272 266 269 273 280 283 259 296 297 284 276 275 276 313 312 294 281 277 281 281 273 266 262 258 253 250 249 249 248 248 249 253 256 250 249 250
272 271 274 273 271 270 273 273 274 270 272 274 274 273 263 283 291 289 283 292 286 314 280 301 291 279 275 277 280 272 267 262 258 253 252 253 253 252 252 260 257 252 250 250
273 269 269 269 273 271 270 266 268 270 271 276 272 274 275 283 287 294 286 286 291 299 308 303 296 287 281 281 280 278 274 268 263 258 255 254 254 257 258 257 253 252 249 249
268 268 270 270 269 263 267 274 274 270 271 273 277 281 282 284 287 293 296 291 291 296 301 305 305 295 286 284 284 280 278 272 267 266 262 258 258 258 258 257 258 257 253 250
257 262 266 262 263 270 271 267 268 270 274 280 282 288 290 290 291 287 298 299 295 293 296 299 303 300 296 288 286 285 279 276 272 271 270 268 265 263 263 263 261 257 258 258
250 250 254 267 260 262 270 263 271 280 272 283 288 292 294 294 284 289 295 297 302 303 302 300 303 309 304 300 295 290 287 281 277 275 274 275 276 275 273 270 267 265 263 263
246 246 249 253 263 269 271 275 273 267 276 289 293 295 298 297 295 303 302 300 308 312 314 318 324 322 322 316 313 306 299 291 287 287 285 282 280 279 279 277 275 271 268 265
250 248 246 254 260 263 274 273 266 279 285 288 293 296 297 299 306 315 311 304 307 310 312 314 324 327 328 327 322 308 302 303 303 300 295 291 288 285 283 279 277 273 269 266
258 258 252 257 267 279 279 277 277 276 281 289 292 294 292 295 301 310 308 311 306 306 308 311 313 321 325 324 323 316 313 310 306 305 302 299 296 292 288 283 279 275 272 268
264 264 262 267 275 285 292 292 288 285 287 291 302 300 302 298 308 309 303 311 304 306 306 308 311 315 314 319 321 319 317 315 311 306 304 304 303 300 295 290 285 280 274 271
267 262 272 279 285 292 296 297 300 305 311 315 327 323 308 308 312 312 309 312 308 304 307 309 311 310 312 316 318 317 314 312 308 305 302 299 298 297 295 292 288 284 281 277
268 273 280 283 273 283 294 311 326 322 310 310 313 319 316 315 310 305 306 306 303 302 305 309 314 315 314 314 315 316 315 313 309 304 300 298 297 296 296 294 293 293 289 284